This is the latest recevied weather packets stored in our database for station/object HB9FHL-13. If no packets are shown the sender has not sent any weather packets the latest 10 day(s).
| Time | Temp. | Humidity | Pressure | Rain* | Wind** | Luminosity | Snow |
|---|---|---|---|---|---|---|---|
| 1777463521 | 12.22° C | - | 1016.9 hPa | 2.29 mm | - | - | - |
| 1777463220 | 12.78° C | - | 1021.1 hPa | 2.29 mm | - | - | - |
| 1777462952 | 13.33° C | - | 1021.5 hPa | 2.29 mm | - | - | - |
| 1777462918 | 13.33° C | - | 1021.5 hPa | 2.29 mm | - | - | - |
| 1777462618 | 12.78° C | - | 1022.4 hPa | 2.29 mm | - | - | - |
| 1777462354 | 12.22° C | - | 1020.4 hPa | 2.29 mm | - | - | - |
| 1777462317 | 12.22° C | - | 1020.4 hPa | 2.29 mm | - | - | - |
| 1777462017 | 11.67° C | - | 1017.1 hPa | 2.29 mm | - | - | - |
| 1777461716 | 12.22° C | - | 1023.4 hPa | 2.29 mm | - | - | - |
| 1777461416 | 12.22° C | - | 1014.8 hPa | 2.29 mm | - | - | - |
| 1777461115 | 12.22° C | - | 1016.7 hPa | 2.29 mm | - | - | - |
| 1777460817 | 10.56° C | - | 1024.4 hPa | 2.29 mm | - | - | - |
| 1777460515 | 10.56° C | - | 1018.1 hPa | 2.29 mm | - | - | - |
| 1777460214 | 10.56° C | - | 1017.6 hPa | 2.29 mm | - | - | - |
| 1777459914 | 11.11° C | - | 1020.5 hPa | 2.29 mm | - | - | - |
| 1777459612 | 10° C | - | 1019.4 hPa | 2.29 mm | - | - | - |
| 1777459311 | 10° C | - | 1015.7 hPa | 2.29 mm | - | - | - |
| 1777459010 | 10° C | - | 1021.4 hPa | 2.29 mm | - | - | - |
| 1777458712 | 11.11° C | - | 1018.7 hPa | 2.29 mm | - | - | - |
| 1777458453 | 10.56° C | - | 1021.1 hPa | 2.29 mm | - | - | - |
| 1777458410 | 10.56° C | - | 1021.1 hPa | 2.29 mm | - | - | - |
| 1777458109 | 10° C | - | 1017.9 hPa | 2.29 mm | - | - | - |
| 1777457809 | 9.44° C | - | 1019.9 hPa | 2.29 mm | - | - | - |
| 1777457508 | 10.56° C | - | 1018.6 hPa | 2.29 mm | - | - | - |
| 1777457208 | 10.56° C | - | 1020.2 hPa | 2.29 mm | - | - | - |
* Rain since midnight (hover to see other rain measurements)
** Current wind speed in m/s (hover to see current wind gust speed)